Lexington Weather

Lexington, Massachusetts, USA

50°F
12/8/2022 1:41pm 
  • Lexington Conditions: Clear
  • Temperature: 50.2°F / 10.1°C 
  • Dew Point: 36.0°FDecreased 0.9°Fsince last hour.
  • Relative Humidity: 58%Decreased 2.0% since last hour.
  • Wind: Wind from NNW NNW 6 mph, 10-min avg: 4 mph, gust: 11 mph
  • Barometer: 30.06 in Steady
  • Visibility: 10 miles
  • Rain Today: 0.00 in
  •   

Warning: Undefined variable $rc in /homepages/6/d276339138/htdocs/weather/20190804/ssi/nwsProduct.php on line 323

Warning: Undefined variable $rc in /homepages/6/d276339138/htdocs/weather/20190804/ssi/nwsProduct.php on line 325

Warning: Undefined variable $rc in /homepages/6/d276339138/htdocs/weather/20190804/ssi/nwsProduct.php on line 323

Warning: Undefined variable $rc in /homepages/6/d276339138/htdocs/weather/20190804/ssi/nwsProduct.php on line 325

Warning: Undefined variable $rc in /homepages/6/d276339138/htdocs/weather/20190804/ssi/nwsProduct.php on line 323

Warning: Undefined variable $rc in /homepages/6/d276339138/htdocs/weather/20190804/ssi/nwsProduct.php on line 325

Warning: Undefined variable $rc in /homepages/6/d276339138/htdocs/weather/20190804/ssi/nwsProduct.php on line 323

Warning: Undefined variable $rc in /homepages/6/d276339138/htdocs/weather/20190804/ssi/nwsProduct.php on line 325

Warning: Undefined variable $rc in /homepages/6/d276339138/htdocs/weather/20190804/ssi/nwsProduct.php on line 323

Warning: Undefined variable $rc in /homepages/6/d276339138/htdocs/weather/20190804/ssi/nwsProduct.php on line 325

Warning: Undefined variable $rc in /homepages/6/d276339138/htdocs/weather/20190804/ssi/nwsProduct.php on line 323

Warning: Undefined variable $rc in /homepages/6/d276339138/htdocs/weather/20190804/ssi/nwsProduct.php on line 325

Warning: Undefined variable $rc in /homepages/6/d276339138/htdocs/weather/20190804/ssi/nwsProduct.php on line 323

Warning: Undefined variable $rc in /homepages/6/d276339138/htdocs/weather/20190804/ssi/nwsProduct.php on line 325

Regional Weather Roundup
for Boston, MA

        
000
ASUS41 KBOX 061110
RWRBOX

REGIONAL WEATHER ROUNDUP
NATIONAL WEATHER SERVICE BOSTON/NORTON MA
600 AM EST TUE DEC 06 2022

NOTE:  "FAIR" INDICATES FEW OR NO CLOUDS BELOW 12,000 FEET WITH NO 
SIGNIFICANT WEATHER AND/OR OBSTRUCTIONS TO VISIBILITY.

MAZALL-061200-
EASTERN MASSACHUSETTS
  
CITY           SKY/WX    TMP DP  RH WIND       PRES   REMARKS
BOSTON         MOCLDY    43  39  86 SE6       30.42R                  
BEVERLY        NOT AVBL                                               
LAWRENCE       CLEAR     33  31  92 CALM      30.43R                  
BEDFORD        CLEAR     31  27  85 CALM      30.40R                  
NORWOOD        CLEAR     33  30  88 CALM      30.41R FOG              
MARSHFIELD       N/A     46  45  93 SE6       30.41R                  
PLYMOUTH       CLEAR     45  40  82 SE6       30.40S                  
TAUNTON          N/A    N/A N/A N/A MISG      30.40S                  
NEW BEDFORD    CLEAR     47  45  93 E7        30.39S                  
$$

MAZALL-061200-
CAPE COD AND THE ISLANDS
  
CITY           SKY/WX    TMP DP  RH WIND       PRES   REMARKS
FALMOUTH       CLEAR     45  43  93 SE10      30.41S                  
HYANNIS        CLEAR     45  43  93 E5        30.41S                  
CHATHAM        CLEAR     48  45  89 SE5       30.44S                  
PROVINCETOWN   CLEAR     45  43  93 SE7       30.43S                  
NANTUCKET      CLEAR     48  45  89 E9        30.42S                  
MARTHAS VNYRD  CLEAR     49  45  86 SE9       30.40S                  
$$
 
MAZALL-061200-
CENTRAL AND WESTERN MASSACHUSETTS
  
CITY           SKY/WX    TMP DP  RH WIND       PRES   REMARKS
WORCESTER      CLOUDY    41  38  89 SE3       30.36S FOG              
FITCHBURG      CLOUDY    37  31  78 CALM      30.40S                  
ORANGE         CLOUDY    34  29  82 CALM      30.38R                  
SPRINGFIELD    CLOUDY    33  33  98 CALM      30.35R                  
WESTFIELD      CLOUDY    32  28  85 N3        30.37R                  
NORTH ADAMS    PTCLDY    44  37  76 E10G26    30.32R                  
PITTSFIELD     CLOUDY    36  33  89 CALM      30.30S                  
$$
 
RIZALL-061200-
RHODE ISLAND
  
CITY           SKY/WX    TMP DP  RH WIND       PRES   REMARKS
PROVIDENCE     CLEAR     34  33  96 N3        30.40R                  
NEWPORT        CLEAR     46  44  93 E5        30.39R                  
BLOCK ISLAND   PTCLDY    50  47  89 SE13      30.38R                  
SMITHFIELD     CLEAR     36  36 100 CALM      30.39R                  
WESTERLY       MOCLDY    51  47  86 SE6       30.38R                  
$$
 
CTZALL-061200-
CONNECTICUT
  
CITY           SKY/WX    TMP DP  RH WIND       PRES   REMARKS
BRADLEY INTL   CLOUDY    35  30  82 N3        30.37S                  
HARTFORD       PTCLDY    35  30  82 N3        30.37S                  
BRIDGEPORT     PTCLDY    39  36  89 NE6       30.34S                  
DANBURY        MOCLDY    32  26  78 CALM      30.34S                  
GROTON         PTCLDY    53  48  83 SE12      30.36S                  
NEW HAVEN      PTCLDY    39  36  89 N7        30.35R                  
CHESTER        FAIR      41  41 100 CALM      30.35S                  
MERIDEN        PTCLDY    32  28  85 NW3       30.37R                  
WILLIMANTIC    MOCLDY    30  29  96 CALM      30.38R                  
OXFORD         MOCLDY    38  36  92 E8        30.33S                  
$$

MEZ002-015-021-024-NHZ003-005-008-011-012-014-VTZ005-008-061200-
NORTHERN NEW ENGLAND
  
CITY           SKY/WX    TMP DP  RH WIND       PRES   REMARKS
PORTLAND ME    MOCLDY    42  38  85 S5        30.44R                  
BANGOR ME      MOCLDY    35  33  92 SE5       30.47R WCI  31          
CONCORD NH     CLOUDY    36  32  85 VRB3      30.41R                  
MANCHESTER NH  CLOUDY    38  32  79 CALM      30.39R                  
NASHUA NH      CLOUDY    35  34  96 NW3       30.41R                  
PORTSMOUTH NH  CLOUDY    38  34  84 CALM      30.41S                  
JAFFREY NH     CLOUDY    42  40  92 S9        30.36R                  
KEENE NH       CLOUDY    34  31  88 CALM        N/A                   
BURLINGTON VT  MOCLDY    43  27  53 S13       30.26R                  
MT. WASHINGTON BLWGSNOW  23  23 100 S47G54      N/A  VSB 1/16WCI   2  
$$

NYZ052-076-061200-
EASTERN NEW YORK
  
CITY           SKY/WX    TMP DP  RH WIND       PRES   REMARKS
ALBANY         CLOUDY    42  35  76 SE9       30.29S                  
NEW YORK CITY  CLOUDY    45  41  86 NE7       30.30F                  
$$
 
ANZALL-061200-
MARINE OBSERVATIONS
  
STATION/POSITION TIME  TEMP    WIND        PRES    VSBY  WAVE
                       AIR SEA DIR/SP/G                  HT/PER
                 (UTC) (F)     (DEG/KT/KT) (MB)    (MI)  (FT/S)
BOSTON BUOY      1050      51  130/ 16/ 19 1030.3F
BUZZARDS BAY     1000   51     130/ 19/ 21 1028.9R
NANTUCKET SOUND  1050   50 49  110/ 12/ 16 1029.8F
MASS BAY-STELLWA 0904   49 50  150/ 14/ 17 1029.8R  1 7/8  4/ 5
ISLE OF SHOALS   1000   48     140/ 19/ 20 1029.2F
S OF BLOCK IS    1056      54                N/A           4/ 5
$$

......................KEY.........................
  SKY/WX - SKY CONDITION/PRESENT WEATHER
  TMP    - TEMPERATURE IN FAHRENHEIT
  DWPT   - DEWPOINT IN FAHRENHEIT
  RH     - RELATIVE HUMIDITY IN PERCENT
  WIND   - DIRECTION AND SPEED IN MPH
  PRES   - MEAN SEA LEVEL PRESSURE IN INCHES OF HG
  WCI    - WIND CHILL INDEX
  VSB    - VISIBILITY IN MILES
  HX     - HEAT INDEX
  TC     - TEMPERATURE IN CELSIUS
  VRB    - VARIABLE WIND DIRECTION
  N/A    - NOT AVAILABLE
  
      

Other recent Regional Weather Roundups

Thu Dec 8, 1:10pm

Thu Dec 8, 12:10pm

Thu Dec 8, 11:10am

Thu Dec 8, 10:10am

Thu Dec 8, 9:10am

Thu Dec 8, 8:10am

Thu Dec 8, 7:10am

Thu Dec 8, 6:10am

Thu Dec 8, 5:10am

Thu Dec 8, 4:10am

Thu Dec 8, 3:10am

Thu Dec 8, 2:10am

Thu Dec 8, 1:10am

Thu Dec 8, 12:10am

Wed Dec 7, 11:10pm

Wed Dec 7, 10:10pm

Wed Dec 7, 9:10pm

Wed Dec 7, 8:10pm

Wed Dec 7, 7:10pm

Wed Dec 7, 6:10pm

Wed Dec 7, 5:10pm

Wed Dec 7, 4:10pm

Wed Dec 7, 3:10pm

Wed Dec 7, 2:10pm

Wed Dec 7, 1:10pm

Wed Dec 7, 12:10pm

Wed Dec 7, 11:10am

Wed Dec 7, 10:10am

Wed Dec 7, 9:10am

Wed Dec 7, 8:10am

Wed Dec 7, 7:10am

Wed Dec 7, 6:10am

Wed Dec 7, 5:10am

Wed Dec 7, 4:10am

Wed Dec 7, 3:10am

Wed Dec 7, 2:10am

Wed Dec 7, 1:10am

Wed Dec 7, 12:10am

Tue Dec 6, 11:10pm

Tue Dec 6, 10:10pm

Tue Dec 6, 9:10pm

Tue Dec 6, 8:10pm

Tue Dec 6, 7:10pm

Tue Dec 6, 6:10pm

Tue Dec 6, 5:10pm

Tue Dec 6, 4:10pm

Tue Dec 6, 3:10pm

Tue Dec 6, 2:10pm

Tue Dec 6, 1:10pm

Tue Dec 6, 12:10pm

Tue Dec 6, 11:10am

Tue Dec 6, 10:10am

Tue Dec 6, 9:10am

Tue Dec 6, 8:10am

Tue Dec 6, 7:10am

Tue Dec 6, 5:10am

Tue Dec 6, 4:10am

Tue Dec 6, 3:10am

Tue Dec 6, 2:10am

Tue Dec 6, 1:10am

Tue Dec 6, 12:10am

Mon Dec 5, 11:10pm

Mon Dec 5, 10:10pm

Mon Dec 5, 9:10pm

Mon Dec 5, 8:10pm

Mon Dec 5, 7:10pm

Mon Dec 5, 6:10pm

Mon Dec 5, 5:10pm

Mon Dec 5, 4:10pm

Mon Dec 5, 3:10pm

Mon Dec 5, 2:10pm

Mon Dec 5, 1:10pm

Mon Dec 5, 12:10pm

Mon Dec 5, 11:10am

Mon Dec 5, 10:10am

Mon Dec 5, 9:10am

Mon Dec 5, 8:10am

Mon Dec 5, 7:10am

Mon Dec 5, 6:10am

Mon Dec 5, 5:10am

Mon Dec 5, 4:10am

Mon Dec 5, 3:10am

Mon Dec 5, 2:10am

Mon Dec 5, 1:10am

Mon Dec 5, 12:10am

Sun Dec 4, 11:10pm

Sun Dec 4, 10:10pm

Sun Dec 4, 9:10pm

Sun Dec 4, 8:10pm

Sun Dec 4, 7:10pm

Sun Dec 4, 6:10pm

Sun Dec 4, 5:10pm

Sun Dec 4, 4:10pm

Sun Dec 4, 3:10pm

Sun Dec 4, 2:10pm

Sun Dec 4, 1:10pm

Sun Dec 4, 12:10pm

Sun Dec 4, 11:10am

Sun Dec 4, 10:10am

Sun Dec 4, 9:10am

Sun Dec 4, 8:10am

Sun Dec 4, 7:10am

Sun Dec 4, 6:10am

Sun Dec 4, 5:10am

Sun Dec 4, 4:10am

Sun Dec 4, 3:10am

Sun Dec 4, 2:10am

Sun Dec 4, 1:10am

Sun Dec 4, 12:10am

Sat Dec 3, 11:10pm

Sat Dec 3, 10:10pm

Sat Dec 3, 9:10pm

Sat Dec 3, 8:10pm

Sat Dec 3, 7:10pm

Sat Dec 3, 6:10pm

Sat Dec 3, 5:10pm

Sat Dec 3, 4:10pm

Sat Dec 3, 3:10pm

Sat Dec 3, 2:10pm

Sat Dec 3, 1:10pm

Sat Dec 3, 12:10pm

Sat Dec 3, 11:10am

Sat Dec 3, 10:10am

Sat Dec 3, 9:10am

Sat Dec 3, 8:10am

Sat Dec 3, 7:10am

Sat Dec 3, 6:10am

Sat Dec 3, 5:10am

Sat Dec 3, 4:10am

Sat Dec 3, 3:10am

Sat Dec 3, 2:10am

Sat Dec 3, 1:10am

Sat Dec 3, 12:10am

Fri Dec 2, 11:10pm

Fri Dec 2, 10:10pm

Fri Dec 2, 9:10pm

Fri Dec 2, 8:10pm

Fri Dec 2, 7:10pm

Fri Dec 2, 6:10pm

Fri Dec 2, 5:10pm

Fri Dec 2, 4:10pm

Fri Dec 2, 3:10pm

Fri Dec 2, 2:10pm

Fri Dec 2, 1:10pm

Fri Dec 2, 12:10pm

Fri Dec 2, 11:10am

Fri Dec 2, 10:10am

Fri Dec 2, 9:10am

Fri Dec 2, 8:10am

Fri Dec 2, 7:10am

Fri Dec 2, 6:10am

Fri Dec 2, 5:10am

Fri Dec 2, 4:10am

Fri Dec 2, 3:10am

Fri Dec 2, 2:10am

Fri Dec 2, 1:10am

Fri Dec 2, 12:10am

Thu Dec 1, 11:10pm

Thu Dec 1, 10:10pm

Thu Dec 1, 9:10pm

Thu Dec 1, 8:10pm

Thu Dec 1, 7:10pm

Thu Dec 1, 6:10pm

Thu Dec 1, 5:10pm

Thu Dec 1, 4:10pm

Thu Dec 1, 3:10pm

Thu Dec 1, 2:10pm

Meta data:

ID: 26ddd6bd-a54d-4dad-9f6c-6ddd8fb68ea2
Link: https://api.weather.gov/products/26ddd6bd-a54d-4dad-9f6c-6ddd8fb68ea2